Content
SEND FEEDBACK

Daily
Averages
Monthly
Summary
Canada

AMHERST, NOVA SCOTIA


Home > North America > Canada > Nova Scotia
Elevation: 66 feet     Latitude: 45 46N     Longitude: 064 15W

WEATHER
 
SELECT A DAY
Number of Records: 98,777;   Date Range: 6/19/04 - 9/22/14
 
SHARE

PRINT THIS DATA

[ ← Previous Day ]
WEATHER ALMANAC - JANUARY 3, 2013
[ Next Day → ]
[ °C ]   °F
Weather ElementAverageHighLow
Temperature6.9 °F10 °F (2:00 pm)2.8 °F (8:00 am)
Dewpoint-0.9 °F1.8 °F (6:00 pm)-4.2 °F (8:00 am)
Humidity68.7 %74 % (1:00 am)49 % (2:00 pm)
Barometer29.80 in29.86 in (9:00 am)29.69 in (1:00 am)
Wind Speed10.3 mph15 mph (1:00 am)
Wind Gust19.6 mph (5:00 am)
Weather ElementAverage
Wind DirectionNW (311.2 °)

Weather ElementTotal
Precipitation---
Heating Degree Days58.6 (Base 65)
Averaged from 26 records on January 3, 2013
WEATHER CONDITIONS BREAKOUT
WIND DIRECTION BREAKOUT
WEATHER BY HOUR - JANUARY 3, 2013
[ °C ]   °F
Local TimeTemperatureDewpointHumidityBarometerVisibilityWind DirectionWind SpeedGust SpeedPrecipitationEventsConditions
1:00 AM7.9 °F1.0 °F74 %29.69 inWNW (300°)15.0 mph
2:00 AM9.0 °F1.0 °F58 %29.71 inWNW (290°)15.0 mph
2:00 AM8.8 °F1.0 °F71 %29.71 inWNW (290°)15.0 mph
3:00 AM6.1 °F-0.9 °F73 %29.74 inNW (310°)13.8 mph
4:00 AM5.2 °F-1.7 °F73 %29.76 inNNW (330°)9.2 mph
5:00 AM4.8 °F-2.2 °F73 %29.78 inNW (310°)13.8 mph19.6 mph
6:00 AM4.3 °F-2.7 °F73 %29.80 inNW (310°)11.5 mph
7:00 AM3.4 °F-3.6 °F73 %29.82 inNW (310°)11.5 mph
8:00 AM3.0 °F-4.0 °F60 %29.83 inNW (320°)9.2 mph
8:00 AM2.8 °F-4.2 °F73 %29.83 inNW (320°)9.2 mph
9:00 AM3.9 °F-2.9 °F73 %29.86 inNW (310°)6.9 mph
10:00 AM6.4 °F-1.3 °F71 %29.85 inNW (320°)8.1 mph
11:00 AM6.6 °F-2.2 °F67 %29.85 inNW (310°)10.4 mph
12:00 PM7.2 °F-2.2 °F66 %29.83 inNW (320°)8.1 mph
1:00 PM8.4 °F-1.1 °F65 %29.81 inNW (310°)8.1 mph
2:00 PM10.0 °F0.0 °F49 %29.80 inNorth (350°)6.9 mph
2:00 PM9.5 °F-0.2 °F65 %29.80 inNorth (350°)6.9 mph
4:00 PM9.7 °F1.2 °F69 %29.81 inNNW (340°)5.8 mph
5:00 PM9.1 °F0.7 °F69 %29.81 inNNW (330°)6.9 mph
6:00 PM9.3 °F1.8 °F71 %29.80 inNW (310°)9.2 mph
7:00 PM8.2 °F0.7 °F71 %29.82 inWNW (300°)11.5 mph
8:00 PM8.0 °F0.0 °F59 %29.82 inWNW (290°)11.5 mph
8:00 PM7.9 °F0.3 °F71 %29.82 inWNW (290°)11.5 mph17.3 mph
9:00 PM7.5 °F-0.2 °F71 %29.82 inWNW (290°)11.5 mph
10:00 PM6.8 °F-0.2 °F73 %29.81 inWNW (290°)10.4 mph
11:00 PM6.4 °F-0.2 °F74 %29.81 inWNW (290°)10.4 mph
Hourly data recorded from CXNP, located miles away from Amherst, Nova Scotia







STORIES FROM OUR PARTNERS